| time (UTC) | temp F | wind direction | speed MPH | gust MPH | rain 1hr in | rain 24hr in | rain mn in | humidity % | barometer mb |
| 20260903233044 | 84 | 77 | 4.0 | 13.0 | 0.00 | 0.00 | 0.00 | 29 | 1023.5 |
| 20260903232526 | 84 | 54 | 5.0 | 13.0 | 0.00 | 0.00 | 0.00 | 29 | 1023.5 |
| 20260903232026 | 84 | 51 | 6.0 | 16.0 | 0.00 | 0.00 | 0.00 | 29 | 1023.6 |
| 20260903231555 | 84 | 49 | 7.0 | 16.0 | 0.00 | 0.00 | 0.00 | 29 | 1023.6 |
| 20260903231023 | 84 | 78 | 8.0 | 14.0 | 0.00 | 0.00 | 0.00 | 29 | 1023.6 |
| 20260903230523 | 84 | 69 | 5.0 | 11.0 | 0.00 | 0.00 | 0.00 | 30 | 1023.6 |
| 20260903230052 | 83 | 47 | 5.0 | 13.0 | 0.00 | 0.00 | 0.00 | 30 | 1023.6 |
| 20260903225527 | 83 | 50 | 5.0 | 14.0 | 0.00 | 0.00 | 0.00 | 30 | 1023.7 |
| 20260903225024 | 83 | 45 | 6.0 | 14.0 | 0.00 | 0.00 | 0.00 | 30 | 1023.8 |
| 20260903224543 | 83 | 55 | 4.0 | 14.0 | 0.00 | 0.00 | 0.00 | 29 | 1023.7 |
| 20260903224025 | 83 | 63 | 6.0 | 14.0 | 0.00 | 0.00 | 0.00 | 29 | 1023.8 |
| 20260903223525 | 84 | 76 | 5.0 | 13.0 | 0.00 | 0.00 | 0.00 | 28 | 1023.8 |
| 20260903223054 | 85 | 72 | 7.0 | 14.0 | 0.00 | 0.00 | 0.00 | 28 | 1023.7 |
| 20260903222528 | 85 | 74 | 6.0 | 14.0 | 0.00 | 0.00 | 0.00 | 28 | 1023.8 |
| 20260903222029 | 85 | 81 | 7.0 | 17.0 | 0.00 | 0.00 | 0.00 | 28 | 1023.9 |
| 20260903221547 | 84 | 73 | 7.0 | 17.0 | 0.00 | 0.00 | 0.00 | 29 | 1023.8 |
| 20260903221025 | 84 | 80 | 5.0 | 15.0 | 0.00 | 0.00 | 0.00 | 28 | 1023.8 |
| 20260903220524 | 84 | 66 | 7.0 | 15.0 | 0.00 | 0.00 | 0.00 | 28 | 1024.0 |
| 20260903220042 | 85 | 82 | 9.0 | 15.0 | 0.00 | 0.00 | 0.00 | 27 | 1023.9 |
| 20260903215526 | 85 | 84 | 5.0 | 15.0 | 0.00 | 0.00 | 0.00 | 27 | 1024.0 |
| 20260903215024 | 85 | 111 | 5.0 | 13.0 | 0.00 | 0.00 | 0.00 | 28 | 1024.0 |
| 20260903214607 | 84 | 22 | 5.0 | 12.0 | 0.00 | 0.00 | 0.00 | 28 | 1024.1 |
| 20260903214026 | 84 | 188 | 1.0 | 14.0 | 0.00 | 0.00 | 0.00 | 28 | 1024.3 |
| 20260903213526 | 84 | 85 | 6.0 | 14.0 | 0.00 | 0.00 | 0.00 | 28 | 1024.3 |
| 20260903213050 | 84 | 95 | 2.0 | 11.0 | 0.00 | 0.00 | 0.00 | 27 | 1024.3 |
| 20260903212528 | 84 | 110 | 3.0 | 14.0 | 0.00 | 0.00 | 0.00 | 28 | 1024.4 |
| 20260903212024 | 84 | 109 | 5.0 | 14.0 | 0.00 | 0.00 | 0.00 | 28 | 1024.6 |
| 20260903211548 | 84 | 97 | 5.0 | 13.0 | 0.00 | 0.00 | 0.00 | 28 | 1024.6 |
| 20260903211024 | 84 | 93 | 7.0 | 16.0 | 0.00 | 0.00 | 0.00 | 28 | 1024.7 |
| 20260903210523 | 84 | 113 | 4.0 | 16.0 | 0.00 | 0.00 | 0.00 | 28 | 1024.7 |
| 20260903210046 | 84 | 71 | 8.0 | 16.0 | 0.00 | 0.00 | 0.00 | 28 | 1024.8 |
| 20260903205524 | 85 | 40 | 6.0 | 15.0 | 0.00 | 0.00 | 0.00 | 27 | 1024.8 |
| 20260903205028 | 85 | 50 | 7.0 | 16.0 | 0.00 | 0.00 | 0.00 | 27 | 1024.9 |
| 20260903204559 | 85 | 109 | 6.0 | 16.0 | 0.00 | 0.00 | 0.00 | 27 | 1024.9 |
| 20260903204025 | 85 | 77 | 5.0 | 14.0 | 0.00 | 0.00 | 0.00 | 28 | 1024.9 |
| 20260903203526 | 85 | 67 | 5.0 | 14.0 | 0.00 | 0.00 | 0.00 | 28 | 1024.9 |
| 20260903203049 | 84 | 137 | 4.0 | 11.0 | 0.00 | 0.00 | 0.00 | 28 | 1024.9 |
| 20260903202523 | 83 | 177 | 4.0 | 11.0 | 0.00 | 0.00 | 0.00 | 29 | 1025.1 |
| 20260903202025 | 82 | 89 | 5.0 | 11.0 | 0.00 | 0.00 | 0.00 | 30 | 1025.1 |
| 20260903201557 | 81 | 140 | 3.0 | 13.0 | 0.00 | 0.00 | 0.00 | 30 | 1025.2 |
| 20260903201030 | 81 | 184 | 5.0 | 14.0 | 0.00 | 0.00 | 0.00 | 30 | 1025.3 |
| 20260903200532 | 81 | 117 | 8.0 | 14.0 | 0.00 | 0.00 | 0.00 | 30 | 1025.3 |
| 20260903200055 | 81 | 91 | 5.0 | 14.0 | 0.00 | 0.00 | 0.00 | 31 | 1025.3 |
| 20260903195526 | 80 | 125 | 5.0 | 13.0 | 0.00 | 0.00 | 0.00 | 31 | 1025.5 |
| 20260903195029 | 80 | 128 | 7.0 | 13.0 | 0.00 | 0.00 | 0.00 | 31 | 1025.5 |
| 20260903194544 | 81 | 180 | 5.0 | 15.0 | 0.00 | 0.00 | 0.00 | 30 | 1025.5 |
| 20260903194024 | 82 | 86 | 4.0 | 16.0 | 0.00 | 0.00 | 0.00 | 30 | 1025.6 |
| 20260903193525 | 82 | 148 | 9.0 | 16.0 | 0.00 | 0.00 | 0.00 | 29 | 1025.6 |
| 20260903193049 | 83 | 133 | 6.0 | 16.0 | 0.00 | 0.00 | 0.00 | 28 | 1025.6 |
| 20260903192530 | 83 | 105 | 6.0 | 13.0 | 0.00 | 0.00 | 0.00 | 29 | 1025.6 |
| 20260903192025 | 82 | 161 | 5.0 | 16.0 | 0.00 | 0.00 | 0.00 | 29 | 1025.7 |
| 20260903191543 | 81 | 189 | 4.0 | 16.0 | 0.00 | 0.00 | 0.00 | 30 | 1025.8 |
| 20260903191025 | 82 | 89 | 9.0 | 16.0 | 0.00 | 0.00 | 0.00 | 30 | 1025.9 |
| 20260903190524 | 82 | 96 | 5.0 | 18.0 | 0.00 | 0.00 | 0.00 | 30 | 1026.1 |
| 20260903190043 | 82 | 94 | 10.0 | 18.0 | 0.00 | 0.00 | 0.00 | 31 | 1026.3 |
| 20260903185525 | 82 | 193 | 4.0 | 12.0 | 0.00 | 0.00 | 0.00 | 30 | 1026.3 |
| 20260903185026 | 82 | 194 | 4.0 | 13.0 | 0.00 | 0.00 | 0.00 | 31 | 1026.3 |
| 20260903184552 | 82 | 185 | 7.0 | 15.0 | 0.00 | 0.00 | 0.00 | 30 | 1026.6 |
| 20260903184029 | 82 | 154 | 7.0 | 15.0 | 0.00 | 0.00 | 0.00 | 31 | 1026.6 |
| 20260903183523 | 81 | 182 | 6.0 | 15.0 | 0.00 | 0.00 | 0.00 | 31 | 1026.6 |
| 20260903183044 | 81 | 146 | 7.0 | 15.0 | 0.00 | 0.00 | 0.00 | 30 | 1026.7 |
| 20260903182524 | 81 | 168 | 3.0 | 10.0 | 0.00 | 0.00 | 0.00 | 31 | 1026.7 |
| 20260903182023 | 81 | 205 | 5.0 | 10.0 | 0.00 | 0.00 | 0.00 | 31 | 1026.7 |
| 20260903181553 | 81 | 195 | 1.0 | 14.0 | 0.00 | 0.00 | 0.00 | 30 | 1026.8 |
| 20260903181026 | 81 | 169 | 5.0 | 14.0 | 0.00 | 0.00 | 0.00 | 30 | 1026.9 |
| 20260903180533 | 81 | 102 | 4.0 | 12.0 | 0.00 | 0.00 | 0.00 | 31 | 1026.9 |
| 20260903180049 | 81 | 174 | 3.0 | 11.0 | 0.00 | 0.00 | 0.00 | 31 | 1027.1 |
| 20260903175524 | 80 | 194 | 2.0 | 19.0 | 0.00 | 0.00 | 0.00 | 31 | 1027.1 |
| 20260903175023 | 80 | 176 | 5.0 | 19.0 | 0.00 | 0.00 | 0.00 | 31 | 1027.1 |
| 20260903174543 | 80 | 166 | 4.0 | 11.0 | 0.00 | 0.00 | 0.00 | 32 | 1027.2 |
| 20260903174024 | 79 | 148 | 3.0 | 10.0 | 0.00 | 0.00 | 0.00 | 32 | 1027.2 |
| 20260903173524 | 79 | 273 | 4.0 | 14.0 | 0.00 | 0.00 | 0.00 | 32 | 1027.2 |
| 20260903173044 | 79 | 144 | 6.0 | 16.0 | 0.00 | 0.00 | 0.00 | 31 | 1027.3 |
| 20260903172526 | 79 | 178 | 8.0 | 16.0 | 0.00 | 0.00 | 0.00 | 32 | 1027.3 |
| 20260903172023 | 80 | 194 | 3.0 | 9.0 | 0.00 | 0.00 | 0.00 | 33 | 1027.2 |
| 20260903171551 | 80 | 168 | 4.0 | 10.0 | 0.00 | 0.00 | 0.00 | 33 | 1027.2 |
| 20260903171025 | 80 | 213 | 4.0 | 10.0 | 0.00 | 0.00 | 0.00 | 32 | 1027.2 |
| 20260903170524 | 80 | 240 | 3.0 | 10.0 | 0.00 | 0.00 | 0.00 | 32 | 1027.2 |
| 20260903170056 | 80 | 190 | 2.0 | 13.0 | 0.00 | 0.00 | 0.00 | 33 | 1027.2 |
| 20260903165523 | 79 | 234 | 4.0 | 13.0 | 0.00 | 0.00 | 0.00 | 32 | 1027.3 |
| 20260903165025 | 79 | 216 | 3.0 | 11.0 | 0.00 | 0.00 | 0.00 | 33 | 1027.3 |
| 20260903164543 | 79 | 235 | 2.0 | 13.0 | 0.00 | 0.00 | 0.00 | 33 | 1027.4 |
| 20260903164025 | 79 | 204 | 5.0 | 13.0 | 0.00 | 0.00 | 0.00 | 33 | 1027.3 |
| 20260903163528 | 79 | 281 | 4.0 | 13.0 | 0.00 | 0.00 | 0.00 | 33 | 1027.2 |
| 20260903163052 | 78 | 97 | 6.0 | 13.0 | 0.00 | 0.00 | 0.00 | 34 | 1027.2 |
| 20260903162528 | 78 | 108 | 3.0 | 13.0 | 0.00 | 0.00 | 0.00 | 35 | 1027.0 |
| 20260903162027 | 78 | 92 | 2.0 | 8.0 | 0.00 | 0.00 | 0.00 | 36 | 1027.1 |
| 20260903161548 | 77 | 123 | 4.0 | 10.0 | 0.00 | 0.00 | 0.00 | 37 | 1027.1 |
| 20260903161024 | 77 | 114 | 4.0 | 11.0 | 0.00 | 0.00 | 0.00 | 38 | 1027.1 |
| 20260903160525 | 77 | 111 | 4.0 | 11.0 | 0.00 | 0.00 | 0.00 | 39 | 1027.0 |
| 20260903160044 | 76 | 154 | 4.0 | 12.0 | 0.00 | 0.00 | 0.00 | 39 | 1027.0 |
| 20260903155524 | 76 | 123 | 6.0 | 12.0 | 0.00 | 0.00 | 0.00 | 39 | 1026.9 |
| 20260903155026 | 76 | 115 | 5.0 | 12.0 | 0.00 | 0.00 | 0.00 | 40 | 1027.0 |
| 20260903154559 | 76 | 131 | 4.0 | 12.0 | 0.00 | 0.00 | 0.00 | 40 | 1027.0 |
| 20260903154027 | 76 | 119 | 5.0 | 12.0 | 0.00 | 0.00 | 0.00 | 40 | 1026.9 |
| 20260903153527 | 75 | 102 | 4.0 | 11.0 | 0.00 | 0.00 | 0.00 | 41 | 1026.9 |
| 20260903153056 | 75 | 121 | 4.0 | 11.0 | 0.00 | 0.00 | 0.00 | 41 | 1026.7 |
| 20260903152528 | 75 | 121 | 5.0 | 11.0 | 0.00 | 0.00 | 0.00 | 41 | 1026.8 |
| 20260903152028 | 75 | 136 | 4.0 | 11.0 | 0.00 | 0.00 | 0.00 | 41 | 1026.8 |
| 20260903151554 | 75 | 120 | 5.0 | 11.0 | 0.00 | 0.00 | 0.00 | 41 | 1026.8 |
| 20260903151027 | 74 | 133 | 3.0 | 11.0 | 0.00 | 0.00 | 0.00 | 42 | 1026.8 |
| 20260903150523 | 74 | 125 | 3.0 | 12.0 | 0.00 | 0.00 | 0.00 | 43 | 1026.8 |
| 20260903145527 | 74 | 131 | 6.0 | 12.0 | 0.00 | 0.00 | 0.00 | 43 | 1026.8 |
| 20260903145024 | 73 | 146 | 4.0 | 11.0 | 0.00 | 0.00 | 0.00 | 44 | 1026.9 |
| 20260903144548 | 73 | 142 | 4.0 | 13.0 | 0.00 | 0.00 | 0.00 | 44 | 1027.0 |
| 20260903144026 | 73 | 144 | 6.0 | 13.0 | 0.00 | 0.00 | 0.00 | 43 | 1026.8 |
| 20260903143527 | 72 | 130 | 3.0 | 9.0 | 0.00 | 0.00 | 0.00 | 45 | 1026.9 |
| 20260903143055 | 72 | 163 | 4.0 | 9.0 | 0.00 | 0.00 | 0.00 | 45 | 1026.7 |
| 20260903142525 | 71 | 143 | 3.0 | 9.0 | 0.00 | 0.00 | 0.00 | 46 | 1026.7 |
| 20260903142032 | 71 | 128 | 3.0 | 9.0 | 0.00 | 0.00 | 0.00 | 47 | 1026.7 |
| 20260903141552 | 70 | 119 | 3.0 | 8.0 | 0.00 | 0.00 | 0.00 | 47 | 1026.5 |
| 20260903141026 | 70 | 128 | 2.0 | 8.0 | 0.00 | 0.00 | 0.00 | 48 | 1026.6 |
| 20260903140525 | 69 | 126 | 4.0 | 7.0 | 0.00 | 0.00 | 0.00 | 48 | 1026.6 |
| 20260903140055 | 68 | 284 | 2.0 | 7.0 | 0.00 | 0.00 | 0.00 | 50 | 1026.6 |
| 20260903135526 | 68 | 271 | 3.0 | 7.0 | 0.00 | 0.00 | 0.00 | 51 | 1026.5 |
| 20260903135025 | 67 | 229 | 1.0 | 4.0 | 0.00 | 0.00 | 0.00 | 52 | 1026.5 |
| 20260903134540 | 66 | 269 | 1.0 | 4.0 | 0.00 | 0.00 | 0.00 | 53 | 1026.4 |
| 20260903134024 | 65 | 269 | 1.0 | 5.0 | 0.00 | 0.00 | 0.00 | 54 | 1026.3 |
| 20260903133524 | 64 | 262 | 2.0 | 5.0 | 0.00 | 0.00 | 0.00 | 56 | 1026.4 |
| 20260903133049 | 63 | 278 | 0.0 | 4.0 | 0.00 | 0.00 | 0.00 | 57 | 1026.3 |
| 20260903132523 | 62 | 278 | 1.0 | 3.0 | 0.00 | 0.00 | 0.00 | 58 | 1026.3 |
| 20260903132027 | 62 | 278 | 0.0 | 3.0 | 0.00 | 0.00 | 0.00 | 58 | 1026.3 |
| 20260903131547 | 62 | 278 | 1.0 | 3.0 | 0.00 | 0.00 | 0.00 | 58 | 1026.3 |
| 20260903131032 | 61 | 278 | 1.0 | 3.0 | 0.00 | 0.00 | 0.00 | 57 | 1026.2 |
| 20260903130530 | 61 | 279 | 1.0 | 3.0 | 0.00 | 0.00 | 0.00 | 57 | 1026.1 |
| 20260903130043 | 61 | 279 | 1.0 | 4.0 | 0.00 | 0.00 | 0.00 | 57 | 1026.1 |
| 20260903125525 | 61 | 279 | 1.0 | 6.0 | 0.00 | 0.00 | 0.00 | 57 | 1026.0 |
| 20260903125027 | 61 | 279 | 1.0 | 7.0 | 0.00 | 0.00 | 0.00 | 57 | 1025.9 |
| 20260903124551 | 61 | 282 | 2.0 | 7.0 | 0.00 | 0.00 | 0.00 | 57 | 1025.9 |
| 20260903124029 | 61 | 287 | 1.0 | 4.0 | 0.00 | 0.00 | 0.00 | 57 | 1025.8 |
| 20260903123524 | 61 | 288 | 2.0 | 4.0 | 0.00 | 0.00 | 0.00 | 57 | 1026.0 |
| 20260903123043 | 61 | 289 | 1.0 | 4.0 | 0.00 | 0.00 | 0.00 | 57 | 1025.8 |
| 20260903122528 | 61 | 291 | 1.0 | 3.0 | 0.00 | 0.00 | 0.00 | 56 | 1025.8 |
| 20260903122027 | 61 | 0 | 1.0 | 4.0 | 0.00 | 0.00 | 0.00 | 56 | 1025.8 |
| 20260903121543 | 61 | 0 | 1.0 | 4.0 | 0.00 | 0.00 | 0.00 | 56 | 1025.7 |
| 20260903121028 | 60 | 0 | 2.0 | 4.0 | 0.00 | 0.00 | 0.00 | 56 | 1025.6 |
| 20260903120525 | 60 | 289 | 2.0 | 4.0 | 0.00 | 0.00 | 0.00 | 56 | 1025.7 |
| 20260903120053 | 60 | 289 | 2.0 | 4.0 | 0.00 | 0.00 | 0.00 | 56 | 1025.7 |
| 20260903115524 | 59 | 288 | 3.0 | 4.0 | 0.00 | 0.00 | 0.00 | 58 | 1025.7 |
| 20260903115025 | 58 | 286 | 2.0 | 4.0 | 0.00 | 0.00 | 0.00 | 57 | 1025.7 |
| 20260903114551 | 59 | 286 | 0.0 | 2.0 | 0.00 | 0.00 | 0.00 | 56 | 1025.8 |
| 20260903114031 | 59 | 0 | 0.0 | 0.0 | 0.00 | 0.00 | 0.00 | 55 | 1025.7 |
| 20260903113526 | 60 | 0 | 0.0 | 0.0 | 0.00 | 0.00 | 0.00 | 53 | 1025.7 |
| 20260903113044 | 60 | 0 | 0.0 | 2.0 | 0.00 | 0.00 | 0.00 | 52 | 1025.7 |
| 20260903112528 | 61 | 0 | 0.0 | 3.0 | 0.00 | 0.00 | 0.00 | 52 | 1025.7 |
| 20260903112025 | 61 | 286 | 1.0 | 6.0 | 0.00 | 0.00 | 0.00 | 52 | 1025.7 |
| 20260903111551 | 61 | 286 | 2.0 | 6.0 | 0.00 | 0.00 | 0.00 | 51 | 1025.6 |
| 20260903111027 | 61 | 286 | 1.0 | 4.0 | 0.00 | 0.00 | 0.00 | 50 | 1025.6 |
| 20260903110528 | 60 | 286 | 1.0 | 4.0 | 0.00 | 0.00 | 0.00 | 50 | 1025.5 |
| 20260903110050 | 60 | 286 | 1.0 | 4.0 | 0.00 | 0.00 | 0.00 | 49 | 1025.5 |
| 20260903105528 | 60 | 285 | 2.0 | 4.0 | 0.00 | 0.00 | 0.00 | 49 | 1025.4 |
| 20260903105027 | 60 | 284 | 1.0 | 4.0 | 0.00 | 0.00 | 0.00 | 49 | 1025.4 |
| 20260903104606 | 60 | 284 | 1.0 | 4.0 | 0.00 | 0.00 | 0.00 | 49 | 1025.4 |
| 20260903104026 | 60 | 284 | 1.0 | 4.0 | 0.00 | 0.00 | 0.00 | 49 | 1025.4 |
| 20260903103527 | 59 | 284 | 1.0 | 4.0 | 0.00 | 0.00 | 0.00 | 49 | 1025.4 |
| 20260903103056 | 59 | 284 | 2.0 | 4.0 | 0.00 | 0.00 | 0.00 | 49 | 1025.3 |
| 20260903102527 | 58 | 299 | 2.0 | 4.0 | 0.00 | 0.00 | 0.00 | 50 | 1025.4 |
| 20260903102025 | 58 | 300 | 1.0 | 3.0 | 0.00 | 0.00 | 0.00 | 50 | 1025.2 |
| 20260903101549 | 58 | 0 | 0.0 | 3.0 | 0.00 | 0.00 | 0.00 | 50 | 1025.3 |
| 20260903101024 | 59 | 0 | 0.0 | 3.0 | 0.00 | 0.00 | 0.00 | 50 | 1025.3 |
| 20260903100525 | 58 | 300 | 1.0 | 3.0 | 0.00 | 0.00 | 0.00 | 49 | 1025.3 |
| 20260903100052 | 59 | 300 | 1.0 | 3.0 | 0.00 | 0.00 | 0.00 | 49 | 1025.2 |
| 20260903095522 | 59 | 300 | 0.0 | 4.0 | 0.00 | 0.00 | 0.00 | 49 | 1025.2 |
| 20260903095023 | 59 | 300 | 2.0 | 5.0 | 0.00 | 0.00 | 0.00 | 48 | 1025.2 |
| 20260903094546 | 60 | 299 | 2.0 | 5.0 | 0.00 | 0.00 | 0.00 | 48 | 1025.2 |
| 20260903094024 | 60 | 299 | 2.0 | 5.0 | 0.00 | 0.00 | 0.00 | 48 | 1025.2 |
| 20260903093524 | 60 | 299 | 1.0 | 5.0 | 0.00 | 0.00 | 0.00 | 47 | 1025.2 |
| 20260903093050 | 60 | 299 | 3.0 | 5.0 | 0.00 | 0.00 | 0.00 | 47 | 1025.2 |
| 20260903092525 | 60 | 298 | 3.0 | 7.0 | 0.00 | 0.00 | 0.00 | 47 | 1025.3 |
| 20260903092027 | 60 | 296 | 3.0 | 7.0 | 0.00 | 0.00 | 0.00 | 48 | 1025.3 |
| 20260903091549 | 59 | 293 | 2.0 | 7.0 | 0.00 | 0.00 | 0.00 | 49 | 1025.2 |
| 20260903091025 | 58 | 342 | 2.0 | 4.0 | 0.00 | 0.00 | 0.00 | 51 | 1025.2 |
| 20260903090526 | 58 | 25 | 2.0 | 4.0 | 0.00 | 0.00 | 0.00 | 52 | 1025.3 |
| 20260903090050 | 57 | 26 | 2.0 | 4.0 | 0.00 | 0.00 | 0.00 | 53 | 1025.4 |
| 20260903085526 | 57 | 26 | 2.0 | 3.0 | 0.00 | 0.00 | 0.00 | 53 | 1025.4 |
| 20260903085024 | 57 | 26 | 0.0 | 4.0 | 0.00 | 0.00 | 0.00 | 54 | 1025.4 |
| 20260903084548 | 57 | 26 | 2.0 | 4.0 | 0.00 | 0.00 | 0.00 | 54 | 1025.4 |
| 20260903084025 | 57 | 26 | 1.0 | 3.0 | 0.00 | 0.00 | 0.00 | 54 | 1025.6 |
| 20260903083525 | 57 | 26 | 1.0 | 3.0 | 0.00 | 0.00 | 0.00 | 54 | 1025.5 |
| 20260903083054 | 57 | 26 | 1.0 | 3.0 | 0.00 | 0.00 | 0.00 | 54 | 1025.2 |
| 20260903082528 | 57 | 26 | 1.0 | 3.0 | 0.00 | 0.00 | 0.00 | 54 | 1025.2 |
| 20260903082025 | 57 | 26 | 1.0 | 4.0 | 0.00 | 0.00 | 0.00 | 54 | 1025.2 |
| 20260903081554 | 57 | 26 | 2.0 | 4.0 | 0.00 | 0.00 | 0.00 | 54 | 1025.2 |
| 20260903081028 | 57 | 26 | 1.0 | 4.0 | 0.00 | 0.00 | 0.00 | 54 | 1025.2 |
| 20260903080526 | 57 | 26 | 2.0 | 4.0 | 0.00 | 0.00 | 0.00 | 54 | 1025.2 |
| 20260903080050 | 57 | 26 | 1.0 | 3.0 | 0.00 | 0.00 | 0.00 | 53 | 1025.3 |
| 20260903075528 | 58 | 26 | 1.0 | 3.0 | 0.00 | 0.00 | 0.00 | 53 | 1025.4 |
| 20260903075025 | 58 | 0 | 1.0 | 3.0 | 0.00 | 0.00 | 0.00 | 53 | 1025.4 |
| 20260903074547 | 58 | 26 | 2.0 | 3.0 | 0.00 | 0.00 | 0.00 | 53 | 1025.5 |
| 20260903074033 | 58 | 26 | 1.0 | 3.0 | 0.00 | 0.00 | 0.00 | 53 | 1025.5 |
| 20260903073525 | 58 | 26 | 2.0 | 3.0 | 0.00 | 0.00 | 0.00 | 52 | 1025.6 |
| 20260903073042 | 58 | 26 | 1.0 | 3.0 | 0.00 | 0.00 | 0.00 | 52 | 1025.4 |
| 20260903072526 | 58 | 26 | 2.0 | 3.0 | 0.00 | 0.00 | 0.00 | 51 | 1025.4 |
| 20260903072027 | 59 | 26 | 1.0 | 5.0 | 0.00 | 0.00 | 0.00 | 51 | 1025.5 |
| 20260903071549 | 59 | 26 | 2.0 | 5.0 | 0.00 | 0.00 | 0.00 | 51 | 1025.4 |
| 20260903071028 | 59 | 26 | 3.0 | 5.0 | 0.00 | 0.00 | 0.00 | 52 | 1025.4 |
| 20260903070523 | 59 | 26 | 2.0 | 4.0 | 0.00 | 0.00 | 0.00 | 52 | 1025.4 |
| 20260903070051 | 59 | 26 | 2.0 | 5.0 | 0.00 | 0.00 | 0.00 | 52 | 1025.4 |
| 20260903065524 | 59 | 26 | 3.0 | 5.0 | 0.00 | 0.00 | 0.00 | 52 | 1025.4 |
| 20260903065024 | 59 | 26 | 3.0 | 4.0 | 0.00 | 0.00 | 0.00 | 52 | 1025.5 |
| 20260903064549 | 59 | 27 | 2.0 | 4.0 | 0.00 | 0.00 | 0.00 | 52 | 1025.6 |
| 20260903064026 | 59 | 27 | 3.0 | 5.0 | 0.00 | 0.00 | 0.00 | 52 | 1025.6 |
| 20260903063527 | 59 | 27 | 3.0 | 5.0 | 0.00 | 0.00 | 0.00 | 53 | 1025.6 |
| 20260903063048 | 59 | 28 | 3.0 | 5.0 | 0.00 | 0.00 | 0.00 | 53 | 1025.5 |
| 20260903062525 | 59 | 35 | 3.0 | 5.0 | 0.00 | 0.00 | 0.00 | 53 | 1025.6 |
| 20260903062025 | 59 | 38 | 2.0 | 4.0 | 0.00 | 0.00 | 0.00 | 54 | 1025.6 |
| 20260903061542 | 59 | 38 | 2.0 | 4.0 | 0.00 | 0.00 | 0.00 | 54 | 1025.8 |
| 20260903061024 | 59 | 38 | 1.0 | 3.0 | 0.00 | 0.00 | 0.00 | 54 | 1025.8 |
| 20260903060525 | 60 | 38 | 2.0 | 3.0 | 0.00 | 0.00 | 0.00 | 53 | 1025.9 |
| 20260903060049 | 60 | 38 | 1.0 | 3.0 | 0.00 | 0.00 | 0.00 | 53 | 1025.8 |
| 20260903055524 | 60 | 38 | 2.0 | 3.0 | 0.00 | 0.00 | 0.00 | 53 | 1025.8 |
| 20260903055025 | 60 | 38 | 1.0 | 4.0 | 0.00 | 0.00 | 0.00 | 53 | 1025.8 |
| 20260903054553 | 60 | 38 | 1.0 | 4.0 | 0.00 | 0.00 | 0.00 | 53 | 1025.7 |
| 20260903054028 | 61 | 38 | 1.0 | 3.0 | 0.00 | 0.00 | 0.00 | 53 | 1025.7 |
| 20260903053528 | 61 | 38 | 2.0 | 4.0 | 0.00 | 0.00 | 0.00 | 52 | 1025.7 |
| 20260903053044 | 61 | 38 | 2.0 | 4.0 | 0.00 | 0.00 | 0.00 | 52 | 1025.8 |
| 20260903052525 | 61 | 38 | 2.0 | 4.0 | 0.00 | 0.00 | 0.00 | 52 | 1025.7 |
| 20260903052025 | 62 | 38 | 2.0 | 4.0 | 0.00 | 0.00 | 0.00 | 52 | 1025.7 |
| 20260903051548 | 62 | 38 | 3.0 | 5.0 | 0.00 | 0.00 | 0.00 | 51 | 1025.7 |
| 20260903051024 | 62 | 38 | 2.0 | 5.0 | 0.00 | 0.00 | 0.00 | 51 | 1025.7 |
| 20260903050524 | 62 | 38 | 3.0 | 4.0 | 0.00 | 0.00 | 0.00 | 51 | 1025.6 |
| 20260903050049 | 62 | 39 | 3.0 | 4.0 | 0.00 | 0.00 | 0.00 | 51 | 1025.7 |
| 20260903045527 | 63 | 39 | 2.0 | 5.0 | 0.00 | 0.00 | 0.00 | 51 | 1025.8 |
| 20260903045024 | 63 | 39 | 2.0 | 5.0 | 0.00 | 0.00 | 0.00 | 50 | 1025.9 |
| 20260903044546 | 63 | 60 | 0.0 | 3.0 | 0.00 | 0.00 | 0.00 | 50 | 1025.8 |
| 20260903044025 | 63 | 60 | 2.0 | 3.0 | 0.00 | 0.00 | 0.00 | 50 | 1025.9 |
| 20260903043524 | 63 | 60 | 0.0 | 3.0 | 0.00 | 0.00 | 0.00 | 50 | 1025.9 |
| 20260903043051 | 64 | 60 | 1.0 | 3.0 | 0.00 | 0.00 | 0.00 | 49 | 1025.9 |
| 20260903042559 | 64 | 60 | 1.0 | 3.0 | 0.00 | 0.00 | 0.00 | 49 | 1025.8 |
| 20260903042027 | 64 | 60 | 1.0 | 3.0 | 0.00 | 0.00 | 0.00 | 49 | 1025.8 |
| 20260903041549 | 64 | 63 | 1.0 | 3.0 | 0.00 | 0.00 | 0.00 | 50 | 1025.8 |
| 20260903041026 | 64 | 78 | 1.0 | 3.0 | 0.00 | 0.00 | 0.00 | 49 | 1025.7 |
| 20260903040524 | 64 | 0 | 0.0 | 3.0 | 0.00 | 0.00 | 0.00 | 49 | 1025.6 |
| 20260903040048 | 64 | 80 | 2.0 | 3.0 | 0.00 | 0.00 | 0.00 | 49 | 1025.6 |
| 20260903035524 | 64 | 80 | 1.0 | 3.0 | 0.00 | 0.00 | 0.00 | 48 | 1025.6 |
| 20260903035024 | 65 | 0 | 1.0 | 3.0 | 0.00 | 0.00 | 0.00 | 48 | 1025.6 |
| 20260903034551 | 65 | 80 | 2.0 | 3.0 | 0.00 | 0.00 | 0.00 | 48 | 1025.4 |
| 20260903034024 | 65 | 80 | 2.0 | 3.0 | 0.00 | 0.00 | 0.00 | 48 | 1025.4 |
| 20260903033523 | 65 | 80 | 2.0 | 3.0 | 0.00 | 0.00 | 0.00 | 48 | 1025.4 |
| 20260903033052 | 65 | 80 | 2.0 | 3.0 | 0.00 | 0.00 | 0.00 | 48 | 1025.3 |
| 20260903032526 | 65 | 80 | 2.0 | 4.0 | 0.00 | 0.00 | 0.00 | 47 | 1025.2 |
| 20260903032024 | 65 | 80 | 2.0 | 4.0 | 0.00 | 0.00 | 0.00 | 47 | 1025.2 |
| 20260903031549 | 65 | 86 | 2.0 | 4.0 | 0.00 | 0.00 | 0.00 | 47 | 1025.2 |
| 20260903031025 | 65 | 92 | 2.0 | 3.0 | 0.00 | 0.00 | 0.00 | 46 | 1025.2 |
| 20260903030528 | 66 | 94 | 2.0 | 3.0 | 0.00 | 0.00 | 0.00 | 46 | 1025.2 |
| 20260903030043 | 66 | 94 | 2.0 | 3.0 | 0.00 | 0.00 | 0.00 | 46 | 1025.1 |
| 20260903025524 | 67 | 95 | 2.0 | 3.0 | 0.00 | 0.00 | 0.00 | 45 | 1025.1 |
| 20260903025023 | 67 | 95 | 1.0 | 3.0 | 0.00 | 0.00 | 0.00 | 44 | 1025.0 |
| 20260903024552 | 68 | 95 | 1.0 | 3.0 | 0.00 | 0.00 | 0.00 | 43 | 1025.0 |
| 20260903024028 | 68 | 95 | 1.0 | 3.0 | 0.00 | 0.00 | 0.00 | 42 | 1025.0 |
| 20260903023530 | 69 | 95 | 0.0 | 3.0 | 0.00 | 0.00 | 0.00 | 42 | 1024.9 |
| 20260903023047 | 69 | 95 | 0.0 | 3.0 | 0.00 | 0.00 | 0.00 | 41 | 1024.9 |
| 20260903022524 | 70 | 0 | 1.0 | 3.0 | 0.00 | 0.00 | 0.00 | 40 | 1024.7 |
| 20260903022025 | 70 | 95 | 0.0 | 2.0 | 0.00 | 0.00 | 0.00 | 39 | 1024.9 |
| 20260903021545 | 71 | 0 | 0.0 | 0.0 | 0.00 | 0.00 | 0.00 | 37 | 1024.7 |
| 20260903021024 | 72 | 0 | 0.0 | 0.0 | 0.00 | 0.00 | 0.00 | 37 | 1024.8 |
| 20260903020527 | 73 | 0 | 0.0 | 0.0 | 0.00 | 0.00 | 0.00 | 36 | 1024.7 |
| 20260903020100 | 74 | 0 | 0.0 | 0.0 | 0.00 | 0.00 | 0.00 | 35 | 1024.7 |
| 20260903015525 | 75 | 0 | 0.0 | 0.0 | 0.00 | 0.00 | 0.00 | 34 | 1024.7 |
| 20260903015023 | 76 | 0 | 0.0 | 2.0 | 0.00 | 0.00 | 0.00 | 33 | 1024.7 |
| 20260903014545 | 76 | 0 | 0.0 | 2.0 | 0.00 | 0.00 | 0.00 | 32 | 1024.6 |
| 20260903014024 | 77 | 0 | 0.0 | 4.0 | 0.00 | 0.00 | 0.00 | 31 | 1024.6 |
| 20260903013525 | 77 | 0 | 0.0 | 4.0 | 0.00 | 0.00 | 0.00 | 30 | 1024.5 |
| 20260903013042 | 78 | 94 | 1.0 | 6.0 | 0.00 | 0.00 | 0.00 | 30 | 1024.5 |
| 20260903012526 | 79 | 94 | 0.0 | 8.0 | 0.00 | 0.00 | 0.00 | 29 | 1024.6 |
| 20260903012027 | 79 | 90 | 2.0 | 9.0 | 0.00 | 0.00 | 0.00 | 29 | 1024.5 |
| 20260903011545 | 79 | 71 | 3.0 | 9.0 | 0.00 | 0.00 | 0.00 | 28 | 1024.5 |
| 20260903011024 | 80 | 112 | 3.0 | 9.0 | 0.00 | 0.00 | 0.00 | 27 | 1024.5 |
| 20260903010526 | 80 | 112 | 3.0 | 9.0 | 0.00 | 0.00 | 0.00 | 27 | 1024.5 |
| 20260903010057 | 81 | 104 | 5.0 | 11.0 | 0.00 | 0.00 | 0.00 | 27 | 1024.6 |
| 20260903005524 | 81 | 92 | 3.0 | 11.0 | 0.00 | 0.00 | 0.00 | 27 | 1024.6 |
| 20260903005028 | 81 | 90 | 5.0 | 13.0 | 0.00 | 0.00 | 0.00 | 27 | 1024.7 |
| 20260903004542 | 81 | 109 | 5.0 | 15.0 | 0.00 | 0.00 | 0.00 | 27 | 1024.5 |
| 20260903004028 | 81 | 147 | 6.0 | 15.0 | 0.00 | 0.00 | 0.00 | 27 | 1024.5 |
| 20260903003523 | 82 | 113 | 7.0 | 15.0 | 0.00 | 0.00 | 0.00 | 27 | 1024.5 |
| 20260903003050 | 82 | 170 | 6.0 | 13.0 | 0.00 | 0.00 | 0.00 | 26 | 1024.5 |
| 20260903002526 | 82 | 130 | 6.0 | 15.0 | 0.00 | 0.00 | 0.00 | 26 | 1024.5 |
| 20260903002026 | 82 | 167 | 5.0 | 15.0 | 0.00 | 0.00 | 0.00 | 25 | 1024.6 |
| 20260903001603 | 82 | 115 | 8.0 | 15.0 | 0.00 | 0.00 | 0.00 | 25 | 1024.6 |
| 20260903001025 | 83 | 102 | 7.0 | 15.0 | 0.00 | 0.00 | 0.00 | 25 | 1024.7 |
| 20260903000525 | 83 | 61 | 7.0 | 16.0 | 0.00 | 0.00 | 0.00 | 27 | 1024.7 |
| 20260903000045 | 83 | 130 | 5.0 | 16.0 | 0.00 | 0.00 | 0.00 | 26 | 1024.7 |
| 20260902235530 | 83 | 105 | 8.0 | 16.0 | 0.00 | 0.00 | 0.00 | 26 | 1024.7 |
| 20260902235024 | 83 | 92 | 3.0 | 11.0 | 0.00 | 0.00 | 0.00 | 27 | 1024.8 |
| 20260902234543 | 82 | 96 | 5.0 | 15.0 | 0.00 | 0.00 | 0.00 | 27 | 1024.9 |
| 20260902234030 | 82 | 189 | 7.0 | 17.0 | 0.00 | 0.00 | 0.00 | 26 | 1024.9 |
| 20260902233523 | 83 | 184 | 9.0 | 17.0 | 0.00 | 0.00 | 0.00 | 27 | 1024.9 |